This is the latest recevied weather packets stored in our database for station/object DH5DY-6. If no packets are shown the sender has not sent any weather packets the latest 10 day(s).
| Time | Temp. | Humidity | Pressure | Rain* | Wind** | Luminosity | Snow |
|---|---|---|---|---|---|---|---|
| 1788154861 | 15° C | 94% | 1010.5 hPa | 0.25 mm | - | 33 W/m² | - |
| 1788154262 | 15° C | 93% | 1010.4 hPa | 0.25 mm | - | 26 W/m² | - |
| 1788153062 | 15° C | 93% | 1010.3 hPa | 0.25 mm | - | 11 W/m² | - |
| 1788152465 | 15° C | 94% | 1010.2 hPa | 0.25 mm | - | 9 W/m² | - |
| 1788151861 | 15° C | 94% | 1010.2 hPa | 1.27 mm | - | 5 W/m² | - |
| 1788150661 | 15° C | 94% | 1010 hPa | 3.3 mm | - | 0 W/m² | - |
| 1788150061 | 15° C | 94% | 1010 hPa | 3.3 mm | - | 0 W/m² | - |
| 1788149462 | 15° C | 94% | 1009.8 hPa | 3.3 mm | - | 0 W/m² | - |
| 1788148861 | 15° C | 94% | 1009.7 hPa | 3.3 mm | - | 0 W/m² | - |
| 1788148261 | 14.44° C | 93% | 1009.9 hPa | 2.29 mm | - | 0 W/m² | - |
| 1788147661 | 14.44° C | 93% | 1009.9 hPa | 0.25 mm | - | 0 W/m² | - |
| 1788147061 | 14.44° C | 94% | 1009.9 hPa | 0 mm | - | 0 W/m² | - |
| 1788146461 | 14.44° C | 93% | 1010 hPa | 0 mm | - | 0 W/m² | - |
| 1788145860 | 14.44° C | 93% | 1009.9 hPa | 0 mm | - | 0 W/m² | - |
| 1788145261 | 14.44° C | 93% | 1009.9 hPa | 0 mm | - | 0 W/m² | - |
| 1788144061 | 14.44° C | 93% | 1009.9 hPa | 0 mm | - | 0 W/m² | - |
| 1788143460 | 13.89° C | 93% | 1009.8 hPa | 0 mm | - | 0 W/m² | - |
| 1788142260 | 13.89° C | 93% | 1009.7 hPa | 0 mm | - | 0 W/m² | - |
| 1788141661 | 13.89° C | 93% | 1009.7 hPa | 0.25 mm | - | 0 W/m² | - |
| 1788141060 | 13.89° C | 92% | 1009.8 hPa | 0.25 mm | - | 0 W/m² | - |
| 1788140460 | 13.89° C | 92% | 1009.9 hPa | 0.25 mm | - | 0 W/m² | - |
| 1788139860 | 13.89° C | 92% | 1009.8 hPa | 0.25 mm | - | 0 W/m² | - |
| 1788139260 | 13.89° C | 91% | 1009.8 hPa | 0.25 mm | - | 0 W/m² | - |
| 1788138660 | 13.89° C | 91% | 1009.9 hPa | 0.25 mm | - | 0 W/m² | - |
| 1788138061 | 13.89° C | 91% | 1009.9 hPa | 0 mm | - | 0 W/m² | - |
* Rain latest hour (hover to see other rain measurements)
** Current wind speed in m/s (hover to see current wind gust speed)